IAM7VH ENGM-ESGG

Flight info

Callsign IAM7VH
Flight time 0h 35m
Altitude 27000
Route OKSAT L996 KELIN
Aircraft A320/M-SDE3FGHIJ5RWY/LB1

Departure

Time 2026-05-04 10:56
Airport Oslo-Gardermoen International Airport (ENGM)

Arrival

Time 2026-05-04 11:31
Airport Göteborg Landvetter Airport (ESGG)
Time Latitude Longitude Altitude Speed Heading
2026-05-04 10:05 60.20803 11.09676 685 ft 0 kts 17°
2026-05-04 10:47 60.20805 11.09677 681 ft 1 kts 17°
2026-05-04 10:47 60.20825 11.09689 686 ft 4 kts 17°
2026-05-04 10:47 60.20854 11.09683 680 ft 4 kts 322°
2026-05-04 10:49 60.20578 11.09134 679 ft 15 kts 194°
2026-05-04 10:49 60.20472 11.09074 679 ft 17 kts 197°
2026-05-04 10:50 60.20352 11.09005 679 ft 19 kts 196°
2026-05-04 10:51 60.19296 11.08394 680 ft 23 kts 196°
2026-05-04 10:52 60.19131 11.08303 679 ft 26 kts 195°
2026-05-04 10:52 60.18952 11.08201 674 ft 15 kts 197°
2026-05-04 10:52 60.18828 11.08131 670 ft 21 kts 195°
2026-05-04 10:54 60.18357 11.07702 664 ft 15 kts 305°
2026-05-04 10:54 60.18429 11.07590 664 ft 12 kts 324°
2026-05-04 10:56 60.22816 11.09870 2279 ft 174 kts 17°
2026-05-04 10:56 60.24057 11.10579 2690 ft 197 kts 16°
2026-05-04 10:56 60.25472 11.11333 3092 ft 223 kts
2026-05-04 10:57 60.27100 11.11155 3594 ft 248 kts 351°
2026-05-04 10:57 60.28872 11.10658 4330 ft 264 kts 355°
2026-05-04 10:57 60.30680 11.11400 5225 ft 274 kts 29°
2026-05-04 10:57 60.32017 11.14131 6184 ft 280 kts 63°
2026-05-04 10:58 60.32413 11.17970 7097 ft 286 kts 94°
2026-05-04 10:58 60.32210 11.22003 8050 ft 292 kts 91°
2026-05-04 10:58 60.32533 11.26077 8920 ft 299 kts 71°
2026-05-04 10:58 60.33330 11.29997 9811 ft 305 kts 62°
2026-05-04 10:59 60.34366 11.33893 10245 ft 327 kts 58°
2026-05-04 10:59 60.35550 11.37989 10600 ft 348 kts 58°
2026-05-04 10:59 60.36635 11.42459 11244 ft 360 kts 71°
2026-05-04 10:59 60.37080 11.47390 11982 ft 367 kts 89°
2026-05-04 11:00 60.36758 11.52522 12733 ft 370 kts 108°
2026-05-04 11:01 60.22043 11.67330 17673 ft 366 kts 181°
2026-05-04 11:02 60.19495 11.67804 18320 ft 369 kts 181°
2026-05-04 11:02 60.16928 11.68284 18952 ft 372 kts 181°
2026-05-04 11:05 59.79176 11.75357 26017 ft 403 kts 182°
2026-05-04 11:06 59.76383 11.75869 26273 ft 404 kts 182°
2026-05-04 11:06 59.73578 11.76389 26532 ft 405 kts 182°
2026-05-04 11:06 59.70769 11.76908 26690 ft 406 kts 182°
2026-05-04 11:06 59.67989 11.77427 26727 ft 397 kts 182°
2026-05-04 11:08 59.49050 11.86719 26737 ft 403 kts 173°
2026-05-04 11:10 59.30182 11.95443 26727 ft 382 kts 192°
2026-05-04 11:12 59.11589 11.93417 26738 ft 382 kts 192°
2026-05-04 11:12 59.08930 11.93136 26735 ft 382 kts 192°
2026-05-04 11:12 59.06275 11.92853 26740 ft 382 kts 192°
2026-05-04 11:12 59.03621 11.92565 26746 ft 382 kts 192°
2026-05-04 11:13 59.00966 11.92278 26740 ft 382 kts 192°
2026-05-04 11:13 58.98312 11.91991 26703 ft 383 kts 192°
2026-05-04 11:13 58.95653 11.91704 26174 ft 381 kts 192°
2026-05-04 11:13 58.93019 11.91426 25666 ft 377 kts 191°
2026-05-04 11:14 58.90418 11.91151 25160 ft 372 kts 191°
2026-05-04 11:14 58.87845 11.90881 24673 ft 368 kts 191°
2026-05-04 11:14 58.85294 11.90617 24197 ft 365 kts 191°
2026-05-04 11:16 58.67818 11.93779 20792 ft 354 kts 180°
2026-05-04 11:16 58.65362 11.94443 20313 ft 351 kts 180°
2026-05-04 11:16 58.62952 11.95094 19826 ft 349 kts 180°
2026-05-04 11:17 58.60585 11.95730 19343 ft 347 kts 179°
2026-05-04 11:17 58.58161 11.96380 18856 ft 347 kts 179°
2026-05-04 11:19 58.41697 12.00790 15530 ft 336 kts 178°
2026-05-04 11:19 58.39382 12.01410 15073 ft 335 kts 178°
2026-05-04 11:19 58.37081 12.02027 14619 ft 333 kts 178°
2026-05-04 11:19 58.34788 12.02643 14176 ft 332 kts 178°
2026-05-04 11:20 58.32502 12.03257 13713 ft 331 kts 178°
2026-05-04 11:20 58.30223 12.03867 13224 ft 330 kts 178°
2026-05-04 11:20 58.27959 12.04472 12758 ft 328 kts 178°
2026-05-04 11:20 58.25713 12.05116 12301 ft 327 kts 174°
2026-05-04 11:22 58.11745 12.19102 9767 ft 301 kts 155°
2026-05-04 11:22 58.09941 12.21054 9612 ft 297 kts 155°
2026-05-04 11:23 58.08135 12.22991 9119 ft 300 kts 155°
2026-05-04 11:23 58.06332 12.24914 8675 ft 298 kts 155°
2026-05-04 11:24 57.95703 12.35217 5368 ft 272 kts 163°
2026-05-04 11:25 57.93932 12.36438 4684 ft 272 kts 163°
2026-05-04 11:25 57.92154 12.37662 4257 ft 271 kts 163°
2026-05-04 11:25 57.90400 12.38869 3934 ft 264 kts 163°
2026-05-04 11:26 57.87113 12.41008 3673 ft 236 kts 173°
2026-05-04 11:27 57.77826 12.38544 2592 ft 152 kts 210°
2026-05-04 11:28 57.76924 12.37721 2514 ft 141 kts 211°
2026-05-04 11:28 57.76055 12.36923 2329 ft 138 kts 210°
2026-05-04 11:28 57.75188 12.36128 2137 ft 139 kts 210°
2026-05-04 11:28 57.74604 12.35594 2007 ft 138 kts 211°
2026-05-04 11:29 57.73752 12.34816 1806 ft 136 kts 210°
2026-05-04 11:29 57.72915 12.34052 1622 ft 136 kts 209°
2026-05-04 11:29 57.72054 12.33266 1479 ft 136 kts 209°
2026-05-04 11:29 57.71208 12.32492 1316 ft 136 kts 209°
2026-05-04 11:31 57.66195 12.27911 516 ft 14 kts 191°
2026-05-04 11:33 57.66150 12.28203 515 ft 0 kts 21°
2026-05-04 11:35 57.66194 12.28243 517 ft 12 kts 26°
2026-05-04 11:35 57.66277 12.28299 518 ft 14 kts 15°
2026-05-04 11:35 57.66363 12.28387 520 ft 14 kts 38°
2026-05-04 11:35 57.66453 12.28481 519 ft 16 kts 25°
2026-05-04 11:36 57.66573 12.28590 517 ft 22 kts 26°
2026-05-04 11:36 57.66727 12.28730 517 ft 25 kts 25°
2026-05-04 11:36 57.66891 12.28878 522 ft 28 kts 25°
2026-05-04 11:36 57.67077 12.29049 524 ft 31 kts 26°
2026-05-04 11:37 57.67213 12.29169 522 ft 9 kts 25°
2026-05-04 11:37 57.67262 12.29215 522 ft 7 kts 32°
2026-05-04 11:37 57.67257 12.29315 520 ft 12 kts 119°
2026-05-04 11:37 57.67219 12.29455 519 ft 13 kts 116°
2026-05-04 11:38 57.67203 12.29516 521 ft 1 kts 116°
2026-05-04 11:38 57.67200 12.29540 522 ft 2 kts 90°
2026-05-04 11:38 57.67213 12.29562 523 ft 6 kts 40°
2026-05-04 11:38 57.67267 12.29620 523 ft 9 kts 54°
2026-05-04 11:39 57.67258 12.29662 526 ft 2 kts 116°
2026-05-04 11:39 57.67247 12.29703 528 ft 4 kts 116°
2026-05-04 11:40 57.67237 12.29744 528 ft 0 kts 115°